Wind_Speed
32 32 32 32 32 32 31 31 31 32 33 35 38 40 41 43 45 46 46 47 46 45 44 42 42 41 40 39 39 39 39 39 39 40 39 39 39 38 39 39 39 38 38 38 37 36 36 34 33 33 33 34 35 35 35 36 37 38 38 40 42 43 43 42 41 42 43 43 41 39 38 38 38 39 40 41 42 43 45 47 48 49 49 50 51
35 35 34 32 32 32 30 30 30 31 33 35 37 38 40 41 42 42 42 42 40 39 38 38 38 38 37 37 37 38 38 38 38 38 39 39 39 39 39 39 40 40 40 40 39 38 34 31 31 32 33 34 35 35 35 34 34 33 33 34 36 38 39 40 41 41 40 39 38 37 36 37 38 39 40 41 42 43 45 46 48 49 50 51 52
36 37 34 32 32 32 30 30 30 31 32 33 33 33 35 37 38 38 38 36 35 33 33 33 34 34 34 34 34 34 33 33 33 33 34 35 35 36 36 37 38 38 38 38 37 36 33 31 32 33 33 33 32 31 30 29 29 30 32 33 35 37 40 40 40 40 39 38 38 37 36 37 37 38 40 41 43 45 47 48 50 51 52 53 54
36 37 35 33 33 31 29 28 28 29 29 29 29 29 31 33 34 33 33 32 31 29 29 29 29 30 30 29 27 26 25 24 25 26 27 27 28 28 29 30 31 32 32 32 31 30 29 29 29 29 29 29 28 28 28 29 30 32 34 35 37 39 40 40 40 39 39 39 39 39 39 39 41 43 44 46 48 49 51 52 54 55 56 57 57
33 34 34 33 33 33 32 28 26 26 26 26 26 27 28 29 28 27 27 26 26 26 26 26 26 26 26 25 23 21 20 20 19 20 21 21 22 23 23 24 24 24 24 25 25 25 26 26 26 27 27 28 29 29 29 30 32 34 35 38 39 39 39 39 39 39 39 40 42 43 44 45 46 48 50 51 53 55 56 57 58 59 60 60 61
36 36 33 32 33 37 38 32 27 26 26 25 25 25 26 25 25 24 24 24 24 25 25 24 24 25 25 24 23 22 21 20 19 19 18 18 18 19 20 21 22 23 23 23 24 25 25 25 26 26 28 30 31 31 31 32 34 35 37 39 39 39 38 39 40 41 42 44 46 48 50 51 52 52 54 55 57 58 59 60 60 61 62 62 62
42 39 34 31 31 35 36 31 27 28 28 28 27 27 26 25 25 25 25 25 26 26 26 27 27 27 27 26 26 26 25 24 22 20 18 18 18 18 18 20 21 22 23 24 24 24 25 25 26 28 30 31 32 33 32 33 35 36 37 38 38 38 39 40 41 43 44 47 49 52 54 55 56 56 57 58 58 59 61 61 62 63 63 63 62
39 37 33 30 29 29 28 26 27 30 32 32 31 29 26 25 26 26 26 28 29 30 30 30 30 31 30 29 27 26 25 24 22 21 20 20 20 20 20 21 22 22 23 24 24 25 26 27 29 30 31 31 32 32 32 32 33 35 36 37 39 40 41 42 44 46 47 49 52 55 57 59 59 59 59 59 60 60 62 63 63 63 63 63 61
36 36 33 29 28 28 25 24 29 33 35 36 34 31 28 27 29 29 29 31 33 33 33 33 32 31 29 27 24 22 22 22 21 21 22 23 24 25 25 24 24 24 25 25 25 26 29 31 31 32 31 32 32 32 32 32 34 35 36 38 40 42 44 45 46 48 50 52 55 58 61 62 62 61 61 62 63 63 64 64 64 64 64 63 60
37 37 35 30 29 30 26 25 29 34 36 37 36 34 31 31 32 31 32 33 35 35 35 35 33 31 29 27 25 24 24 24 24 24 24 24 25 26 27 27 27 28 29 30 30 31 33 34 33 32 32 33 33 34 34 35 36 37 39 41 42 44 46 47 49 51 53 56 59 61 64 65 65 65 66 67 68 67 65 64 65 66 65 63 61
38 38 36 31 31 32 29 28 32 34 36 37 36 36 36 35 35 34 34 35 37 37 37 36 35 33 32 30 29 28 27 27 28 28 28 28 28 29 30 31 32 33 34 36 36 37 37 36 34 32 33 34 35 36 37 38 39 41 42 44 45 46 48 50 52 54 56 60 63 66 69 69 68 69 71 72 72 71 69 68 68 68 66 65 64
37 36 34 32 33 34 33 33 36 37 37 38 38 39 38 37 37 37 36 37 38 38 38 37 37 36 34 33 32 32 31 30 30 31 31 32 33 34 35 35 35 36 37 39 41 40 38 36 34 34 35 37 37 38 39 40 42 44 45 46 48 50 52 54 56 58 61 65 68 70 72 73 72 74 76 76 76 74 73 72 71 70 68 67 66
36 35 35 34 34 35 35 37 42 43 42 42 42 42 41 39 38 38 38 38 39 40 40 40 38 37 37 36 35 35 34 33 34 34 35 36 37 38 38 38 38 39 40 42 42 39 37 36 36 37 38 39 40 40 41 43 45 47 49 51 52 54 56 58 60 63 67 70 72 74 76 76 77 80 81 80 79 78 76 75 74 72 71 70 68
39 38 39 38 38 39 40 43 47 49 49 47 45 43 41 39 38 39 39 39 40 41 42 41 39 39 39 38 37 37 37 37 37 38 39 40 41 40 40 40 41 41 41 40 39 38 38 38 39 39 41 42 43 44 45 47 49 51 53 55 57 59 61 62 65 69 72 74 75 77 80 81 82 84 84 83 82 80 79 78 77 76 74 73 72
44 43 42 41 42 44 45 47 49 51 52 51 48 44 42 40 39 40 40 40 40 41 42 42 41 41 41 41 40 40 41 41 41 42 43 44 44 42 41 41 41 40 39 38 38 40 40 41 41 42 43 45 47 48 50 52 54 56 59 60 62 64 65 68 72 75 76 77 79 82 84 85 86 86 85 85 84 82 81 82 82 82 81 80 79
48 47 47 45 45 47 48 49 50 52 52 51 48 45 43 42 42 42 42 42 42 42 43 43 42 42 43 44 44 45 45 45 45 46 46 45 43 42 40 40 39 40 40 41 42 43 44 45 45 45 47 49 51 53 55 58 60 62 64 65 66 68 71 74 77 78 79 81 84 86 87 87 87 87 86 85 84 84 84 84 85 86 87 86 85
50 50 51 50 49 49 49 48 49 52 52 50 47 45 44 44 43 43 45 45 45 44 43 43 44 44 46 47 48 48 49 48 48 48 47 45 43 42 41 41 42 44 45 46 46 47 48 48 49 51 53 55 57 59 62 64 65 66 68 70 72 74 77 80 81 81 84 86 88 89 89 89 89 87 86 85 85 86 87 86 86 87 89 89 88
53 52 53 53 52 52 51 49 49 52 54 52 47 45 45 45 45 46 48 48 47 46 45 46 47 48 49 50 50 50 51 51 50 50 48 46 45 44 44 45 47 48 49 50 50 51 53 54 55 57 59 60 63 65 67 68 69 71 73 75 78 80 82 83 84 86 88 90 91 91 91 91 89 87 86 85 86 88 89 89 89 91 92 92 91
57 55 53 53 54 54 53 52 52 54 55 53 49 46 47 48 49 50 51 52 52 50 49 50 51 52 51 51 51 51 52 52 52 51 50 48 47 47 48 50 52 53 54 55 56 57 58 59 60 62 63 65 67 69 70 72 74 76 78 80 83 84 85 87 88 90 92 93 93 94 93 91 90 88 87 87 88 89 90 91 92 95 97 97 96
59 58 55 54 54 54 54 54 54 55 55 54 52 51 51 51 52 53 54 55 54 53 52 52 52 52 52 52 52 52 52 52 53 52 51 51 50 51 53 54 57 59 59 60 61 61 62 64 65 66 68 69 71 73 76 78 80 81 83 85 87 87 88 90 92 94 95 95 95 94 93 91 90 89 89 90 91 92 93 95 96 98 101 102 101
60 59 57 55 55 55 54 54 54 55 57 57 57 56 56 56 56 57 58 57 56 54 54 53 53 52 52 53 53 54 54 54 54 54 54 54 55 56 57 58 61 62 63 64 64 64 65 67 69 71 72 75 77 80 82 84 85 87 88 89 89 90 92 93 95 96 97 96 95 93 91 89 89 90 91 93 95 96 97 99 101 104 106 107 105
61 60 57 56 56 57 56 56 55 56 58 58 57 57 58 60 61 60 59 58 57 56 55 55 55 55 55 55 56 56 56 56 56 56 57 58 59 60 61 62 64 65 67 67 68 67 68 70 73 76 79 82 85 86 87 88 89 89 90 91 92 94 95 96 97 98 97 96 94 93 91 90 90 91 94 96 98 100 101 103 106 108 110 111 110
62 62 59 57 56 57 58 58 58 58 59 60 59 59 59 60 60 60 59 59 58 58 57 57 58 58 59 59 59 59 59 59 59 60 61 62 63 64 65 66 67 68 70 70 71 72 73 75 78 82 86 88 89 89 90 91 91 91 92 94 95 96 97 98 99 99 98 97 96 95 93 93 94 95 97 100 102 105 107 110 111 111 112 113 112
63 64 63 60 59 59 59 60 60 60 61 61 61 60 60 59 59 58 58 59 59 59 60 60 61 61 62 63 63 63 63 63 64 65 66 67 68 68 69 69 70 71 73 74 76 78 81 83 85 87 89 89 90 90 91 92 93 95 96 97 98 100 100 101 101 101 100 99 98 98 98 99 100 102 104 106 108 111 113 115 116 115 114 113 112
64 65 65 64 62 62 62 63 63 63 63 62 61 61 61 61 61 60 60 61 61 62 63 64 64 65 66 66 67 67 68 68 69 71 72 72 72 73 73 74 75 77 78 81 83 85 86 87 88 88 89 89 90 91 92 94 95 97 98 100 101 102 103 104 104 104 103 102 102 103 104 105 107 108 110 112 113 115 117 118 118 118 117 114 113
67 66 67 67 66 65 64 65 65 66 66 65 64 64 65 66 66 66 66 66 66 66 67 67 68 68 69 69 69 69 70 71 73 75 76 76 76 77 78 79 80 82 83 84 86 86 87 88 88 89 90 91 93 94 95 96 98 100 101 103 104 105 106 107 107 107 107 108 109 110 111 112 113 114 115 117 117 119 120 120 120 119 118 116 115
71 69 69 70 70 69 69 68 68 68 68 68 68 68 68 69 70 70 70 70 71 71 72 72 73 73 74 74 73 73 74 76 79 80 80 80 80 81 81 82 83 83 84 85 86 87 89 90 91 93 94 95 96 97 98 100 102 103 105 107 108 109 110 111 112 112 114 115 115 116 117 118 118 119 119 120 121 122 122 122 120 120 119 117 115
75 73 72 72 73 73 73 73 72 72 72 72 72 71 71 71 72 72 73 73 74 75 76 77 77 78 79 79 78 77 78 80 81 82 82 82 83 83 83 84 84 85 86 88 89 91 93 94 95 96 97 98 99 101 102 104 106 108 109 110 111 113 114 115 116 117 118 119 119 120 121 122 123 123 123 123 123 124 124 123 121 120 117 114 111
79 77 76 76 76 76 76 76 76 76 76 75 75 75 75 75 74 74 74 75 76 76 77 77 78 78 79 80 79 78 79 80 81 81 82 83 83 84 84 86 87 88 90 92 93 94 96 97 98 99 101 102 104 105 107 109 111 112 113 114 116 117 118 119 119 120 120 121 121 123 124 126 126 126 125 124 123 123 123 122 120 117 113 109 105
82 82 81 80 79 78 78 79 79 79 79 78 78 78 78 78 78 77 77 77 77 77 78 78 78 78 79 80 79 79 79 80 81 82 83 84 85 86 88 89 91 93 94 95 97 98 99 101 102 104 105 107 108 110 112 113 114 116 117 118 119 120 120 121 121 122 122 124 125 126 127 128 127 126 124 123 121 120 120 118 115 111 106 102 97
85 85 85 84 83 82 81 81 81 81 81 81 80 79 79 79 80 80 81 81 80 80 80 80 80 80 81 81 82 82 82 83 84 85 87 88 90 91 93 94 96 97 98 99 101 102 104 105 107 108 110 111 113 114 115 116 118 119 120 121 121 122 122 123 124 125 127 128 129 129 128 128 126 124 122 120 118 115 113 110 106 101 96 92 89
87 88 89 88 87 86 85 84 84 83 83 83 82 82 82 82 82 82 83 84 84 84 84 84 84 84 85 86 87 88 89 90 90 92 93 94 96 97 98 99 100 102 103 104 105 106 108 110 111 113 114 115 116 117 118 119 120 121 121 122 122 123 124 126 128 129 130 130 130 129 127 126 124 121 118 115 111 106 102 98 94 91 87 83 80
91 91 91 92 92 91 89 88 87 87 86 86 86 86 86 86 87 87 87 87 88 88 89 89 89 90 91 92 93 94 95 96 97 98 98 99 100 101 102 103 104 105 107 108 109 111 113 114 116 117 117 118 119 120 120 121 121 122 123 123 125 126 128 130 131 131 131 129 128 126 125 122 119 116 111 106 100 94 89 86 83 81 79 76 73
95 95 94 94 95 95 95 94 92 91 91 90 90 90 90 91 91 92 92 93 93 94 95 95 96 97 97 98 99 100 101 102 102 103 104 104 105 105 106 108 109 110 112 113 115 116 117 118 119 119 120 120 121 121 122 122 123 124 125 127 128 130 131 131 131 130 128 127 125 123 120 116 111 106 100 94 89 84 80 78 76 75 72 70 68
99 99 99 98 98 98 98 98 98 97 96 95 95 95 95 95 95 96 97 97 98 98 99 100 101 101 102 103 104 104 105 106 107 108 109 110 110 111 112 114 115 116 117 117 118 119 119 120 120 121 121 122 122 123 124 125 127 128 130 131 131 131 131 130 128 126 125 123 120 116 112 107 101 94 88 84 80 77 75 72 71 69 67 64 62
102 102 103 103 103 102 102 102 102 102 102 101 101 101 101 100 101 101 102 102 102 102 103 104 105 105 106 107 108 108 109 110 111 112 113 114 115 116 116 117 117 118 118 118 119 120 120 121 122 122 123 124 125 127 129 130 131 132 132 132 131 130 128 127 125 123 121 118 113 108 102 96 90 85 81 78 75 72 69 67 65 64 62 60 58
102 105 106 106 106 106 106 106 106 106 105 105 105 105 105 106 106 106 107 107 107 107 108 109 109 110 111 111 112 113 114 114 115 116 116 117 117 118 118 118 119 119 119 120 120 121 122 123 124 125 127 128 130 131 132 133 132 132 131 130 129 127 126 124 123 120 115 110 104 98 93 88 83 79 75 73 70 67 64 62 60 59 58 57 55
98 102 106 108 108 108 109 109 109 109 110 110 110 110 110 110 110 111 111 111 112 112 113 113 113 114 114 115 115 115 116 117 117 117 118 118 118 119 119 120 120 120 121 122 123 124 126 127 128 130 131 132 132 133 132 132 131 130 128 127 126 125 123 121 117 112 106 100 94 90 86 82 78 74 71 68 66 65 62 60 58 56 55 54 53
95 97 100 104 107 109 111 111 112 111 111 112 112 112 113 113 114 114 114 114 115 115 114 114 115 115 115 115 115 116 116 117 117 118 118 119 120 120 121 122 122 123 124 126 127 128 130 131 131 132 132 132 132 131 130 130 128 127 126 125 124 122 118 113 107 101 96 91 87 84 81 78 74 70 67 65 63 63 61 58 55 54 53 51 50
96 97 98 100 102 105 108 111 113 113 114 114 114 114 114 115 115 115 115 116 116 116 116 116 116 117 117 117 118 118 119 119 120 121 122 122 123 124 125 126 127 128 129 129 130 131 131 131 131 131 131 130 130 129 128 127 126 125 124 122 119 114 108 102 97 92 88 85 82 80 77 74 71 68 65 63 61 60 59 57 54 51 50 49 48
98 99 100 101 102 103 105 106 109 111 112 114 115 116 116 117 117 117 118 118 119 119 119 119 120 120 121 121 122 122 123 123 124 125 126 127 127 128 128 129 129 130 130 130 130 130 130 130 130 129 129 129 128 127 126 125 124 122 119 114 108 103 98 94 90 86 83 80 78 75 73 70 68 64 62 60 58 56 56 54 52 49 48 46 46
98 100 101 103 104 105 105 106 107 108 109 111 112 113 114 116 116 117 117 118 119 119 120 120 121 121 122 122 123 123 124 124 125 126 127 127 127 128 128 128 128 128 128 128 128 128 128 128 128 128 127 126 126 125 124 122 119 114 108 103 98 94 91 87 84 81 78 75 73 71 69 67 64 62 59 57 55 53 52 51 49 47 46 44 43
98 99 101 103 105 106 107 108 108 109 110 110 111 112 112 113 114 114 115 115 116 117 118 118 119 120 120 120 121 121 122 123 124 124 125 125 125 126 126 126 126 126 126 127 127 127 127 127 126 126 125 125 123 121 118 113 108 103 99 95 91 88 85 82 79 76 74 71 68 66 64 62 61 59 56 53 51 50 49 48 46 44 44 43 42
99 100 101 102 104 105 107 108 109 109 110 111 111 112 113 113 114 114 114 115 115 116 116 117 117 118 118 119 119 120 121 121 122 122 123 123 124 124 124 125 125 125 126 126 126 126 125 125 124 123 122 120 116 112 107 103 99 95 92 88 85 83 80 77 74 72 69 66 64 62 60 58 57 55 53 50 48 47 46 45 43 42 41 41 40
98 99 101 102 103 105 106 107 107 109 110 111 111 112 113 113 114 114 115 115 116 116 116 117 117 118 118 119 119 120 120 121 121 122 122 123 123 124 124 124 124 124 124 124 124 123 123 121 119 117 113 110 106 102 99 96 92 89 85 83 80 78 75 72 70 67 64 62 60 58 57 54 53 51 50 48 45 44 44 43 41 40 39 39 38
96 97 99 100 102 104 105 106 107 108 109 110 110 111 112 113 113 114 115 115 116 116 117 117 118 118 119 119 120 120 120 121 121 122 122 122 123 123 123 122 122 122 122 121 120 118 116 113 110 107 104 100 97 95 92 89 86 83 80 77 74 72 69 67 65 62 60 58 56 55 54 52 49 48 47 46 43 42 41 41 39 38 38 37 37
92 94 96 98 99 101 102 103 105 107 108 109 110 111 111 112 112 113 114 114 115 116 116 117 117 117 118 118 119 119 119 120 120 120 121 121 121 121 120 120 119 118 116 114 112 109 106 104 101 98 96 93 90 87 85 82 80 78 74 71 68 65 63 62 60 58 56 55 53 52 51 49 47 45 44 44 42 40 39 39 38 37 36 35 35
84 87 90 93 95 97 99 100 101 103 104 105 106 108 109 110 111 112 112 113 114 114 115 115 116 116 117 117 117 118 118 118 118 118 118 117 117 116 115 113 111 110 107 105 103 100 98 95 93 90 87 85 83 81 79 77 74 71 68 64 61 60 59 58 57 55 53 51 51 49 48 47 44 42 42 41 40 38 37 37 37 36 35 34 34
77 79 82 85 88 91 93 95 97 99 100 101 102 103 104 105 106 107 108 109 110 110 111 111 112 112 113 113 113 113 113 113 112 112 111 110 109 108 106 105 103 102 99 97 94 92 89 86 84 82 80 79 77 75 73 70 67 64 61 58 57 56 55 54 53 52 50 49 48 46 45 44 42 41 40 39 39 38 36 36 35 35 34 33 33
70 72 74 76 79 81 84 86 89 91 94 96 97 98 100 101 102 103 103 104 105 105 106 106 106 107 107 107 107 107 106 106 106 105 104 103 102 100 99 97 95 93 91 88 85 83 80 79 77 76 74 73 71 69 66 63 60 58 56 54 53 53 52 51 50 49 48 46 45 43 42 41 40 39 38 37 37 36 36 35 34 34 33 32 32
65 66 68 69 71 73 75 77 79 81 84 86 87 89 91 93 94 95 96 97 98 99 99 100 100 100 100 100 100 100 99 98 98 97 95 94 92 91 89 88 86 84 81 79 77 76 74 73 71 70 68 67 64 62 59 57 55 53 52 51 50 50 50 49 48 47 46 45 43 41 40 38 38 37 37 36 36 35 35 34 33 33 32 31 31
Wind_Direction
242 242 240 236 231 229 231 234 237 239 239 240 241 242 245 249 253 255 258 259 260 261 261 262 262 262 262 261 261 261 261 261 261 260 260 259 257 255 252 250 248 246 245 246 249 252 254 256 258 260 261 262 264 267 269 272 272 271 270 270 272 274 277 279 283 286 289 290 291 291 290 289 288 287 287 288 289 291 294 295 296 297 297 297 297
243 241 240 236 231 229 230 234 237 239 240 241 243 244 246 249 252 254 256 257 258 259 260 261 262 261 260 260 260 259 260 260 260 260 260 260 258 256 253 250 247 246 245 245 246 248 252 256 258 259 261 263 266 268 270 272 272 273 274 274 274 276 278 280 284 287 290 291 290 289 289 289 289 290 292 293 295 297 298 299 299 299 299 299 299
244 239 237 231 226 226 229 231 235 238 239 241 243 245 246 248 251 253 255 256 258 259 259 260 260 259 258 257 257 257 257 257 258 259 259 258 256 254 252 250 247 246 246 246 246 247 250 254 257 258 260 262 265 268 270 272 274 276 278 277 276 278 280 282 284 286 289 290 289 290 292 295 296 298 300 302 303 304 304 304 304 304 304 304 304
247 238 231 225 222 223 227 230 234 236 238 241 243 246 248 250 253 255 256 256 256 255 254 253 253 253 252 252 251 251 251 252 253 253 252 251 250 249 248 247 246 246 247 247 247 247 249 252 254 257 260 263 267 271 273 274 276 277 277 276 277 279 280 282 285 287 289 291 294 296 299 303 306 308 309 310 310 311 311 311 311 311 311 310 309
246 234 225 221 222 223 226 230 234 235 237 241 242 242 244 247 251 253 253 252 250 248 246 245 247 248 248 247 247 247 246 244 242 242 241 240 239 238 238 239 242 244 245 245 245 245 247 249 252 257 262 265 269 272 273 275 277 277 277 277 279 280 282 286 291 294 297 300 304 306 308 311 313 314 314 313 313 314 314 315 315 315 314 314 313
232 227 219 217 222 228 231 233 235 236 236 238 237 236 238 243 248 250 250 249 247 246 245 246 250 252 252 251 250 249 244 238 233 230 228 229 231 233 235 237 239 241 243 244 244 245 246 249 254 260 264 267 269 270 271 274 276 276 276 277 279 281 285 290 295 299 303 307 310 311 313 315 316 315 315 314 313 313 314 315 315 315 315 315 314
220 220 216 215 223 232 234 232 233 235 235 235 234 235 238 243 246 247 249 250 250 250 251 252 255 256 258 257 254 251 247 241 236 229 224 225 230 233 237 238 239 240 242 243 244 247 250 252 256 260 263 266 268 269 270 271 272 274 277 280 284 287 291 295 299 303 306 308 310 312 315 315 315 314 314 312 312 312 313 313 313 314 314 315 315
218 218 217 218 223 227 230 231 232 234 235 236 236 236 238 240 243 247 252 255 257 257 257 258 258 260 260 258 255 252 247 241 236 234 233 234 237 239 241 241 239 238 239 242 246 251 255 257 258 260 261 264 266 269 270 271 274 277 281 285 290 293 296 300 304 306 308 308 309 311 313 313 312 312 311 311 312 312 312 311 312 313 314 315 316
218 217 217 222 226 227 231 235 236 237 237 236 237 238 239 242 247 252 256 258 261 262 262 263 263 262 260 257 256 252 245 241 243 247 248 248 247 246 245 244 242 240 241 245 252 259 263 264 263 263 265 269 273 278 281 282 283 284 286 290 293 295 297 301 303 304 305 306 307 309 310 310 310 309 310 310 311 311 311 311 312 313 315 316 316
217 218 220 224 229 232 233 232 234 239 239 236 238 240 243 248 252 255 257 259 261 264 266 267 265 262 261 261 261 259 255 256 260 262 263 262 259 255 253 253 252 250 250 253 261 271 273 271 268 270 275 279 283 287 289 290 289 288 290 294 295 296 297 299 301 302 303 304 305 307 308 308 308 308 309 310 311 312 312 312 313 313 315 315 314
217 220 221 219 223 235 244 241 234 235 238 240 244 246 248 253 255 256 257 258 260 263 265 265 263 261 261 262 262 262 264 265 266 267 268 269 270 269 266 264 262 259 258 260 268 275 276 274 274 279 283 285 287 289 289 289 289 290 293 295 295 296 297 297 299 300 301 303 304 305 307 308 308 308 309 310 312 313 313 314 314 314 314 314 312
216 219 218 216 224 239 250 242 228 227 237 247 252 253 254 257 258 259 259 259 260 261 262 262 260 260 260 260 261 263 265 264 264 265 267 270 273 275 273 269 266 265 264 266 271 275 277 279 283 287 287 287 288 288 287 287 289 291 292 293 294 295 295 296 297 298 300 301 302 304 307 308 307 308 310 311 312 313 313 313 314 314 314 313 311
217 220 219 218 224 233 236 230 226 231 242 251 254 256 258 259 260 261 260 259 259 259 260 261 260 260 261 261 263 265 266 265 265 266 268 271 275 275 273 270 269 268 269 270 273 276 280 284 288 288 286 285 285 285 284 286 288 289 290 291 292 293 294 295 296 297 299 301 302 305 306 307 307 309 311 312 312 313 313 313 313 314 313 311 311
215 220 221 222 223 225 225 227 232 240 247 252 253 256 259 261 261 261 259 258 257 257 260 261 260 261 262 264 265 266 267 268 268 269 271 273 275 274 271 270 271 272 274 274 275 277 280 283 285 284 282 281 281 282 283 285 287 288 289 289 291 292 294 295 296 298 300 301 303 304 306 307 308 310 311 312 312 312 312 312 312 313 312 312 313
214 217 221 224 225 225 227 232 240 246 251 254 255 258 261 262 261 260 258 256 256 256 258 260 261 262 264 265 267 268 269 269 270 271 273 275 276 274 273 272 274 275 276 276 276 276 277 279 281 280 278 277 279 281 283 285 286 287 289 290 291 292 293 294 296 298 300 301 302 304 306 308 309 310 310 311 311 311 311 312 313 314 314 315 316
216 218 220 222 225 228 232 238 244 248 250 253 256 259 261 261 260 260 259 257 255 255 258 260 262 264 266 267 269 269 270 271 273 275 277 277 277 276 274 273 273 274 274 275 276 277 278 279 279 277 277 277 279 280 282 284 286 288 289 290 291 291 293 295 297 298 299 301 303 305 307 308 309 309 310 309 309 310 311 313 313 314 315 315 315
217 219 220 223 227 230 234 239 244 247 247 250 254 257 258 258 258 258 259 258 257 257 259 262 264 266 268 269 270 270 271 273 276 278 280 279 278 277 275 273 272 273 274 275 276 277 278 278 277 276 276 276 277 280 283 285 287 289 290 290 291 292 294 296 297 298 300 303 305 306 307 308 308 309 309 309 309 310 311 312 311 310 311 312 311
218 219 221 224 228 231 235 238 241 243 244 247 252 254 255 256 257 258 259 260 260 261 262 264 266 268 269 269 269 270 271 273 276 278 279 278 277 276 275 274 273 273 274 275 275 274 274 275 275 275 274 275 278 282 284 286 288 289 290 291 292 294 295 296 298 300 302 304 305 306 307 308 308 308 308 308 308 309 310 310 309 308 309 309 308
218 220 222 225 227 230 234 236 238 241 244 247 249 250 252 255 257 258 259 261 262 264 266 267 269 269 269 269 269 270 271 273 275 276 276 276 275 273 271 271 271 271 271 271 271 272 272 272 272 272 273 276 280 283 285 287 289 290 291 292 293 294 295 297 299 301 303 304 305 307 308 308 308 308 308 308 307 307 307 307 306 306 306 307 307
218 221 224 226 228 231 233 235 237 240 243 244 245 247 250 253 256 257 259 262 265 267 268 268 268 268 268 268 269 270 271 273 274 275 274 274 273 272 270 269 269 269 270 269 269 270 270 271 271 272 273 277 282 285 287 288 289 290 291 291 293 294 296 298 300 302 303 305 306 308 309 308 308 307 306 306 306 306 305 304 304 303 304 305 306
217 220 223 227 230 231 234 236 238 240 241 243 244 246 248 251 254 256 259 263 265 267 267 268 267 266 265 265 266 268 269 271 272 273 273 272 272 271 271 270 269 269 270 270 270 270 270 270 272 273 275 279 283 285 287 288 289 290 291 292 294 296 298 300 301 303 305 306 307 307 307 306 305 304 303 304 304 304 303 302 302 302 303 304 305
217 218 222 226 229 232 234 235 237 239 241 242 243 246 250 252 254 257 259 262 264 264 265 265 265 265 265 265 266 267 269 270 271 271 271 270 270 270 270 269 269 269 270 271 271 271 270 270 272 275 278 281 284 286 287 288 289 291 292 294 295 297 299 301 302 304 305 306 306 306 305 304 302 301 301 301 301 301 300 300 300 300 302 303 304
218 218 220 224 227 230 233 235 236 238 239 241 243 247 251 254 255 257 258 260 261 262 263 263 263 264 265 266 267 268 269 269 269 269 270 270 270 270 269 269 270 270 271 272 272 272 273 273 275 278 281 284 286 287 288 290 291 292 293 295 297 299 300 302 303 304 305 305 305 304 303 302 301 300 299 299 298 298 298 298 299 300 300 301 303
221 221 221 223 226 228 231 233 235 237 239 242 244 247 250 252 254 256 256 257 259 260 261 262 263 263 264 264 265 267 267 268 268 269 270 271 271 271 271 271 271 271 272 273 274 276 277 278 280 282 284 285 287 288 290 291 293 294 296 298 299 301 302 303 304 304 304 304 303 302 301 300 299 299 298 297 297 297 298 299 300 300 301 302 302
222 224 224 225 226 228 231 233 235 236 239 241 243 246 248 249 251 252 254 255 257 258 260 261 261 262 262 262 263 264 265 266 267 268 270 271 272 272 272 272 273 273 274 275 276 278 279 281 282 283 285 286 288 289 291 292 294 296 297 298 300 301 301 302 302 302 302 301 301 300 299 299 298 298 298 297 298 298 299 299 300 301 302 302 302
222 225 227 228 228 229 231 233 236 238 239 241 243 245 247 248 250 252 253 255 257 258 259 259 259 259 259 260 261 263 265 266 267 268 270 271 272 273 273 274 275 276 277 278 279 280 281 282 283 284 286 287 288 290 291 293 294 295 296 297 298 299 299 300 300 300 299 299 299 298 298 298 297 298 298 298 299 299 300 300 301 301 301 301 301
221 224 227 229 230 231 231 232 234 236 238 240 242 244 247 249 251 253 255 256 257 258 258 258 259 259 260 261 262 263 265 267 268 270 271 272 273 274 274 275 276 277 278 278 279 280 281 282 284 285 286 287 289 290 292 293 294 295 295 296 297 297 298 298 298 298 298 298 298 298 298 298 298 299 299 300 300 301 301 301 301 301 300 300 300
222 223 225 227 230 232 233 234 235 236 237 239 240 242 245 247 250 252 254 255 256 257 258 259 261 263 263 264 264 265 266 267 268 270 271 272 273 274 274 275 275 276 277 278 279 280 281 283 284 285 286 288 289 290 291 292 293 294 295 295 296 296 297 297 297 298 298 298 298 298 298 299 299 300 300 301 301 301 301 301 300 300 299 299 298
223 223 224 226 228 231 233 235 237 238 239 241 242 243 245 247 248 250 252 253 254 256 257 259 261 262 264 265 265 266 266 267 268 269 270 271 272 273 273 274 275 276 277 279 280 281 282 283 285 286 287 288 289 290 291 292 293 293 294 295 295 296 296 297 297 298 298 298 298 298 298 299 300 300 301 301 301 300 300 300 299 298 297 296 295
224 225 225 226 228 230 232 234 236 238 240 241 242 244 245 247 248 249 251 252 253 254 256 257 259 261 262 264 265 265 265 266 267 268 269 270 271 271 272 274 275 276 278 279 280 282 283 284 285 286 287 288 289 290 291 292 292 293 294 294 295 296 296 297 297 297 297 297 297 298 298 299 300 300 300 300 300 300 299 298 297 296 295 294 293
225 226 227 228 229 230 232 234 235 237 239 240 242 243 244 245 247 248 250 251 252 253 254 256 257 259 260 261 263 263 264 264 265 266 267 268 270 271 273 274 275 276 277 279 280 281 282 283 285 286 287 288 289 290 291 291 292 293 293 294 295 295 296 296 296 296 296 297 298 299 299 300 300 300 300 300 299 298 297 296 295 294 293 292 291
226 227 228 229 230 231 232 234 235 236 237 239 240 241 242 243 245 246 248 249 250 251 252 254 255 256 258 259 261 262 263 264 264 266 267 268 270 271 273 274 275 276 277 278 280 281 282 284 285 286 287 288 289 289 290 291 292 292 293 294 294 295 295 295 296 296 297 298 299 299 300 300 300 300 299 298 297 296 294 293 292 292 291 290 290
227 228 229 230 230 231 232 234 235 236 237 238 239 240 242 243 244 245 246 247 248 250 251 252 253 255 257 258 260 262 263 264 266 267 268 269 271 272 273 274 276 277 278 279 280 282 283 284 285 286 286 287 288 289 290 290 291 292 292 293 294 294 295 295 296 297 298 298 299 300 300 300 299 298 297 296 295 294 293 292 291 290 290 289 288
228 229 230 231 232 232 233 234 235 237 238 239 240 241 242 243 244 245 246 247 249 250 251 253 254 255 257 259 260 262 263 265 266 267 269 270 271 272 274 275 276 277 278 279 281 281 282 283 284 285 286 287 288 289 289 290 291 291 292 293 293 294 295 295 296 297 298 299 299 299 299 298 297 296 296 295 294 294 293 292 291 290 289 288 287
230 230 231 232 233 234 235 236 236 238 239 240 241 242 243 244 245 246 247 248 249 251 253 254 256 257 258 260 261 263 264 265 266 268 269 270 271 273 274 275 276 277 278 280 281 282 283 283 284 285 286 287 288 288 289 290 291 291 292 293 294 294 295 296 297 298 299 299 299 298 298 297 296 295 295 295 294 294 293 292 291 290 289 288 287
232 232 232 233 234 235 236 237 238 239 240 241 242 243 244 245 246 247 249 250 251 252 254 255 257 258 260 261 262 264 265 266 267 268 270 271 272 273 274 275 276 278 279 280 280 281 282 283 284 285 285 286 287 288 289 290 291 292 293 293 294 295 296 297 298 299 299 299 298 298 297 296 296 296 296 296 295 294 293 291 290 290 289 288 287
234 234 234 235 235 236 237 238 239 240 241 242 243 245 246 247 248 249 250 252 253 254 255 256 258 259 261 262 263 264 265 266 268 269 270 271 272 273 274 275 276 277 278 279 280 281 282 282 283 284 285 286 287 288 289 290 291 292 293 294 295 296 297 298 299 299 298 298 297 297 297 297 297 297 297 296 295 294 293 292 291 290 290 289 288
238 237 237 237 237 238 239 239 240 241 242 243 245 246 247 248 249 251 252 253 254 255 257 258 259 260 261 262 263 264 266 267 268 269 270 271 272 273 274 275 276 277 277 278 279 280 281 282 283 284 285 287 288 289 289 290 292 293 294 295 296 297 298 298 298 297 297 297 297 297 297 297 297 297 297 297 296 295 294 293 292 291 290 289 288
240 240 240 240 240 240 241 241 242 243 243 244 245 246 248 249 250 251 253 254 255 256 257 258 259 260 261 262 263 264 265 266 267 268 269 270 271 272 273 274 275 276 277 278 279 280 281 283 284 285 286 287 288 289 290 291 292 293 295 296 297 297 297 297 296 296 297 298 298 298 298 298 298 298 298 297 296 296 295 294 293 292 291 289 288
242 243 243 243 242 242 243 243 244 245 245 246 247 248 249 250 251 252 253 254 255 256 257 258 259 260 261 262 263 264 265 266 267 268 269 270 271 272 273 274 275 276 277 279 280 281 282 283 284 285 286 287 289 290 291 292 293 294 295 296 296 296 296 296 296 297 298 298 298 298 298 298 298 298 298 297 296 295 294 294 293 292 290 289 287
242 243 244 244 244 244 245 245 245 246 246 247 248 249 250 251 252 253 254 255 256 257 258 259 260 261 262 263 264 265 266 267 268 269 270 271 272 273 274 275 276 277 278 279 280 281 282 284 285 286 287 288 289 290 292 293 294 295 295 295 295 295 296 296 297 297 297 297 297 297 297 297 297 297 296 296 295 294 293 292 292 291 289 288 287
243 243 244 245 246 246 246 247 247 247 248 248 249 250 251 252 253 254 255 256 257 258 259 260 261 262 263 264 265 266 267 268 269 270 271 272 273 274 275 276 277 278 279 280 281 282 283 284 285 287 288 289 290 291 292 293 294 294 294 294 295 295 296 296 297 297 297 297 297 296 296 296 296 296 296 295 294 293 292 291 291 290 289 288 287
244 244 245 245 246 247 247 248 248 249 249 250 250 251 251 252 253 254 255 256 257 258 259 260 262 263 264 264 265 266 267 268 269 270 271 272 273 274 275 276 277 278 279 280 281 283 284 285 286 287 288 289 290 291 292 292 293 293 294 294 295 295 296 296 296 296 296 296 295 295 296 296 296 296 295 295 294 293 291 290 290 289 289 288 286
245 245 245 246 247 247 248 248 249 250 250 251 252 252 253 254 254 255 256 257 258 259 260 261 262 263 264 265 266 266 267 268 269 270 271 272 273 274 275 276 277 278 279 280 281 282 284 285 286 287 288 289 290 291 291 292 293 293 294 294 295 295 295 295 295 295 295 295 295 295 295 295 295 295 295 294 293 292 291 290 290 289 288 287 286
246 246 246 246 247 248 248 249 250 250 251 251 252 253 254 254 255 256 257 258 258 259 260 261 262 263 264 265 266 267 268 268 269 270 271 272 273 274 275 276 277 278 279 280 281 283 284 285 286 287 288 289 290 290 291 292 292 293 293 294 294 294 294 294 294 294 294 295 295 295 295 295 295 295 294 293 293 292 291 291 290 289 287 286 285
248 248 248 248 248 248 249 249 250 251 251 252 252 253 254 255 255 256 257 258 259 259 260 261 262 263 264 265 265 266 267 268 269 270 271 272 273 274 275 276 277 278 280 281 282 283 284 285 286 287 288 289 290 290 291 291 292 292 293 293 293 293 292 292 293 294 295 295 296 296 296 296 296 295 294 293 293 293 292 291 290 289 287 286 285
248 249 249 250 250 251 251 251 251 251 252 252 253 254 254 255 256 257 257 258 259 260 261 261 262 263 264 265 266 267 267 268 269 270 271 272 274 275 276 277 278 279 280 281 282 283 284 285 286 287 288 288 289 289 290 290 291 292 292 292 291 291 291 292 293 294 295 296 296 296 296 296 295 295 294 293 293 293 292 291 290 289 287 286 285
249 249 249 250 251 251 252 253 253 253 254 254 254 255 255 256 257 257 258 259 259 260 261 262 263 264 264 265 266 267 268 269 270 271 272 273 274 275 277 278 279 280 281 282 283 284 284 285 286 286 286 287 288 288 289 289 290 290 290 290 290 290 291 292 293 294 295 295 296 295 295 295 294 294 293 293 293 292 291 290 289 288 287 286 285
251 250 250 250 250 251 252 252 253 254 255 255 256 256 257 257 258 259 259 260 260 261 262 263 264 264 265 266 267 268 269 270 271 272 273 274 275 276 277 278 279 280 281 282 282 283 283 284 284 285 286 286 287 287 287 287 288 288 289 289 290 291 291 292 293 294 294 295 294 294 293 293 293 293 293 292 292 292 291 290 289 288 286 285 284
253 253 252 252 252 252 252 252 253 253 254 255 255 256 257 258 258 259 260 261 261 262 263 264 264 265 266 267 268 268 269 270 271 272 273 274 275 276 277 278 279 279 280 281 281 282 283 283 284 284 284 285 285 285 285 286 286 287 289 290 291 291 291 292 293 294 294 294 293 293 292 292 292 292 292 292 291 291 290 289 288 286 285 284 282
255 255 255 254 254 254 254 254 254 254 254 255 255 256 256 257 257 258 259 260 261 261 262 263 264 265 265 266 267 268 269 270 271 272 273 274 275 276 276 277 278 279 279 280 281 281 282 282 282 282 282 283 283 283 284 285 287 288 289 290 291 291 292 292 293 294 294 294 293 292 292 292 292 292 292 292 291 290 289 288 286 285 284 282 281
Height
10622 10620 10618 10616 10615 10616 10616 10616 10617 10619 10621 10623 10624 10626 10628 10629 10631 10632 10633 10635 10636 10638 10639 10640 10640 10641 10641 10642 10642 10642 10643 10643 10644 10644 10644 10645 10646 10646 10646 10646 10645 10644 10644 10643 10643 10644 10646 10648 10649 10649 10650 10651 10651 10652 10652 10652 10651 10651 10651 10650 10649 10648 10647 10646 10645 10644 10643 10642 10640 10639 10638 10637 10636 10636 10635 10634 10633 10631 10629 10627 10624 10622 10620 10618 10616
10620 10619 10617 10615 10614 10613 10613 10613 10614 10615 10617 10618 10620 10622 10624 10625 10626 10628 10629 10631 10632 10633 10635 10635 10636 10636 10637 10637 10638 10638 10638 10639 10639 10640 10640 10640 10641 10641 10641 10641 10641 10640 10640 10640 10641 10641 10643 10644 10645 10645 10646 10647 10647 10647 10648 10647 10647 10646 10647 10647 10646 10644 10643 10643 10642 10641 10639 10638 10636 10635 10634 10634 10633 10632 10631 10630 10628 10625 10623 10621 10618 10616 10614 10612 10610
10619 10618 10615 10613 10612 10611 10611 10610 10611 10612 10613 10614 10616 10618 10619 10621 10622 10623 10625 10626 10628 10629 10630 10631 10631 10632 10632 10633 10634 10634 10634 10635 10635 10636 10636 10637 10637 10637 10637 10637 10637 10636 10636 10637 10639 10640 10641 10642 10642 10642 10642 10642 10643 10643 10643 10643 10643 10642 10643 10643 10642 10641 10639 10639 10638 10637 10635 10634 10632 10631 10631 10630 10629 10627 10626 10624 10622 10619 10617 10615 10612 10609 10607 10605 10603
10618 10616 10611 10609 10609 10608 10607 10607 10608 10609 10609 10610 10612 10613 10615 10616 10618 10620 10621 10622 10624 10625 10626 10627 10628 10628 10629 10629 10630 10630 10631 10631 10631 10632 10633 10633 10634 10634 10634 10634 10634 10634 10633 10635 10636 10637 10638 10639 10639 10638 10638 10639 10639 10639 10640 10639 10639 10638 10638 10638 10638 10637 10635 10634 10633 10632 10631 10630 10628 10627 10626 10625 10624 10622 10620 10617 10615 10613 10610 10608 10605 10602 10600 10597 10594
10618 10612 10607 10606 10605 10604 10603 10603 10604 10604 10605 10606 10608 10610 10612 10614 10615 10617 10618 10619 10620 10622 10623 10624 10625 10626 10626 10627 10627 10628 10628 10628 10628 10629 10630 10631 10631 10632 10632 10632 10632 10631 10632 10632 10633 10634 10635 10636 10636 10636 10635 10635 10635 10636 10636 10635 10634 10634 10633 10633 10633 10632 10631 10629 10628 10627 10626 10624 10623 10621 10619 10619 10618 10616 10614 10611 10609 10606 10604 10601 10598 10595 10593 10590 10586
10611 10607 10603 10602 10602 10601 10600 10600 10600 10600 10601 10603 10605 10607 10609 10611 10612 10614 10615 10616 10618 10619 10621 10622 10623 10623 10624 10624 10625 10625 10625 10625 10626 10627 10628 10629 10629 10630 10630 10630 10630 10630 10630 10630 10630 10631 10632 10633 10633 10633 10632 10631 10631 10632 10632 10632 10630 10629 10629 10628 10627 10627 10627 10625 10623 10621 10619 10618 10617 10615 10613 10612 10611 10611 10609 10606 10604 10601 10598 10595 10593 10589 10587 10584 10580
10600 10601 10600 10599 10599 10599 10598 10597 10597 10598 10598 10600 10602 10604 10606 10608 10609 10610 10612 10613 10615 10616 10618 10619 10620 10621 10622 10622 10622 10622 10623 10623 10624 10625 10626 10626 10627 10627 10627 10627 10627 10627 10627 10627 10628 10629 10629 10630 10630 10629 10628 10628 10628 10628 10628 10628 10626 10625 10624 10623 10621 10621 10620 10619 10617 10615 10614 10612 10610 10609 10608 10606 10604 10604 10602 10601 10599 10596 10593 10589 10586 10583 10580 10578 10575
10598 10599 10598 10597 10597 10596 10595 10595 10595 10595 10597 10598 10599 10601 10603 10605 10605 10607 10609 10610 10611 10613 10615 10616 10617 10618 10618 10618 10618 10619 10620 10621 10622 10622 10623 10623 10624 10625 10625 10624 10624 10624 10624 10624 10624 10625 10626 10626 10626 10625 10625 10625 10624 10623 10623 10623 10621 10620 10619 10617 10616 10614 10613 10612 10611 10609 10607 10606 10604 10602 10601 10600 10599 10598 10596 10594 10592 10590 10588 10584 10580 10577 10574 10571 10568
10595 10595 10594 10595 10595 10594 10594 10594 10593 10593 10594 10595 10597 10598 10600 10601 10601 10603 10605 10606 10607 10609 10611 10613 10614 10614 10614 10614 10616 10617 10617 10618 10618 10619 10620 10621 10621 10622 10622 10622 10622 10621 10621 10621 10621 10622 10622 10622 10621 10621 10620 10620 10619 10617 10617 10616 10615 10614 10613 10612 10610 10608 10606 10605 10604 10602 10601 10599 10598 10597 10595 10593 10592 10591 10590 10588 10586 10584 10581 10577 10573 10570 10568 10565 10562
10588 10590 10591 10594 10595 10594 10593 10593 10593 10591 10590 10591 10593 10594 10596 10597 10598 10599 10600 10601 10602 10604 10606 10608 10609 10609 10610 10611 10613 10613 10614 10614 10615 10615 10616 10617 10617 10618 10618 10618 10618 10618 10617 10617 10617 10617 10617 10616 10616 10616 10615 10613 10612 10611 10610 10609 10608 10607 10606 10605 10604 10602 10600 10599 10597 10596 10594 10592 10591 10590 10589 10587 10585 10583 10581 10579 10578 10576 10573 10570 10567 10563 10560 10558 10555
10583 10585 10587 10591 10593 10592 10590 10591 10592 10589 10586 10587 10588 10589 10591 10593 10593 10594 10595 10596 10597 10599 10601 10603 10603 10604 10606 10607 10608 10609 10609 10610 10610 10610 10611 10612 10612 10613 10614 10614 10613 10613 10613 10612 10612 10612 10612 10610 10610 10610 10608 10607 10606 10604 10603 10602 10601 10600 10599 10598 10597 10596 10595 10593 10592 10590 10589 10587 10585 10583 10581 10580 10578 10575 10573 10570 10568 10566 10563 10561 10559 10556 10554 10551 10547
10579 10581 10584 10587 10588 10587 10586 10587 10587 10585 10582 10582 10583 10584 10586 10588 10588 10589 10590 10591 10591 10593 10595 10597 10598 10599 10601 10603 10603 10603 10604 10605 10605 10606 10606 10607 10607 10608 10608 10608 10608 10608 10608 10608 10607 10607 10605 10604 10604 10603 10602 10600 10599 10598 10597 10596 10594 10593 10592 10591 10591 10590 10588 10587 10586 10584 10583 10580 10578 10575 10573 10571 10569 10566 10564 10561 10558 10556 10554 10551 10549 10548 10546 10543 10540
10575 10578 10580 10582 10582 10581 10581 10580 10580 10578 10577 10577 10578 10579 10581 10582 10583 10584 10585 10586 10587 10587 10589 10590 10593 10594 10596 10597 10597 10598 10599 10599 10600 10601 10601 10602 10602 10602 10602 10602 10603 10603 10603 10602 10601 10600 10598 10597 10597 10597 10595 10593 10592 10592 10591 10590 10589 10588 10586 10585 10584 10583 10582 10580 10579 10578 10576 10573 10570 10567 10565 10563 10560 10557 10554 10551 10548 10546 10544 10541 10540 10539 10537 10534 10531
10569 10572 10574 10576 10576 10576 10575 10574 10573 10572 10571 10572 10573 10574 10575 10577 10578 10578 10579 10580 10581 10582 10582 10584 10587 10589 10590 10591 10592 10592 10593 10594 10594 10595 10595 10596 10596 10597 10596 10596 10597 10596 10596 10595 10594 10592 10592 10591 10591 10590 10588 10586 10586 10585 10584 10584 10583 10582 10581 10579 10578 10576 10575 10574 10572 10570 10568 10566 10563 10559 10556 10553 10551 10547 10543 10540 10537 10535 10533 10531 10530 10529 10527 10524 10522
10563 10566 10568 10570 10571 10571 10569 10568 10568 10567 10566 10566 10568 10569 10571 10572 10572 10572 10573 10574 10576 10576 10577 10579 10581 10582 10583 10584 10585 10586 10587 10587 10588 10589 10590 10590 10590 10590 10590 10590 10590 10589 10588 10588 10587 10586 10585 10585 10585 10584 10581 10580 10579 10579 10578 10578 10576 10575 10574 10573 10571 10570 10568 10566 10565 10563 10561 10558 10555 10552 10547 10544 10541 10537 10533 10529 10526 10524 10523 10520 10517 10514 10512 10510 10509
10558 10560 10562 10563 10564 10564 10564 10564 10564 10562 10560 10560 10563 10565 10566 10566 10566 10566 10567 10568 10570 10571 10572 10573 10575 10576 10576 10577 10578 10579 10580 10580 10581 10582 10582 10582 10582 10582 10583 10583 10582 10582 10581 10581 10581 10580 10579 10579 10579 10577 10575 10573 10573 10573 10572 10571 10570 10569 10567 10566 10565 10563 10561 10559 10557 10555 10552 10550 10547 10543 10539 10535 10531 10528 10524 10520 10516 10513 10511 10508 10503 10499 10498 10498 10497
10553 10555 10556 10556 10557 10557 10558 10558 10558 10556 10556 10556 10558 10560 10560 10560 10560 10560 10560 10561 10564 10566 10567 10568 10569 10570 10570 10570 10571 10572 10572 10573 10573 10573 10574 10574 10574 10575 10576 10576 10575 10574 10574 10574 10574 10574 10573 10573 10573 10570 10569 10568 10567 10566 10565 10564 10563 10562 10560 10558 10556 10554 10553 10551 10549 10547 10543 10540 10537 10533 10529 10526 10522 10518 10514 10510 10505 10501 10499 10497 10493 10489 10488 10489 10487
10547 10549 10550 10550 10551 10551 10551 10552 10551 10550 10550 10552 10554 10555 10555 10554 10555 10555 10554 10555 10557 10559 10562 10563 10563 10564 10564 10564 10565 10565 10565 10566 10566 10566 10566 10566 10567 10568 10568 10568 10567 10567 10567 10567 10568 10567 10567 10567 10566 10564 10562 10561 10559 10558 10558 10557 10556 10554 10552 10550 10547 10546 10544 10542 10539 10537 10533 10530 10526 10522 10519 10515 10511 10508 10504 10500 10495 10490 10488 10487 10483 10479 10479 10480 10479
10542 10543 10543 10544 10544 10545 10544 10545 10545 10544 10545 10548 10551 10551 10550 10548 10548 10549 10548 10549 10550 10552 10555 10556 10556 10556 10557 10557 10558 10558 10559 10559 10559 10560 10560 10560 10561 10561 10562 10561 10560 10559 10560 10561 10561 10561 10560 10559 10558 10556 10554 10552 10552 10551 10550 10549 10548 10546 10543 10541 10539 10537 10535 10532 10529 10526 10523 10519 10516 10512 10508 10503 10499 10496 10493 10489 10485 10481 10478 10477 10474 10470 10468 10468 10468
10535 10536 10537 10538 10539 10540 10539 10540 10540 10540 10541 10543 10545 10545 10544 10543 10542 10542 10542 10542 10544 10546 10548 10549 10549 10549 10549 10550 10550 10551 10551 10552 10552 10553 10554 10554 10555 10555 10555 10554 10553 10552 10553 10554 10554 10555 10553 10551 10549 10547 10546 10545 10544 10543 10541 10540 10539 10536 10534 10532 10530 10528 10525 10522 10518 10515 10512 10508 10504 10499 10495 10491 10487 10484 10482 10479 10476 10472 10468 10466 10464 10461 10458 10457 10456
10528 10530 10532 10533 10534 10535 10535 10536 10536 10536 10536 10537 10538 10538 10538 10537 10536 10536 10536 10537 10538 10539 10540 10540 10541 10542 10543 10543 10544 10544 10545 10545 10546 10546 10547 10547 10547 10547 10546 10546 10545 10544 10544 10544 10546 10547 10547 10543 10539 10537 10537 10537 10537 10536 10534 10531 10529 10527 10524 10522 10520 10517 10515 10512 10508 10504 10500 10497 10492 10488 10485 10481 10477 10474 10471 10469 10467 10463 10459 10456 10453 10449 10446 10444 10444
10521 10523 10525 10526 10527 10528 10529 10530 10530 10530 10530 10531 10532 10532 10531 10530 10530 10531 10531 10532 10532 10533 10533 10533 10534 10535 10535 10536 10536 10537 10538 10539 10539 10540 10540 10539 10539 10539 10538 10538 10537 10536 10535 10535 10536 10538 10539 10536 10531 10528 10528 10528 10527 10526 10524 10522 10520 10517 10514 10511 10508 10505 10502 10499 10495 10491 10488 10484 10481 10479 10476 10472 10469 10466 10462 10459 10457 10453 10451 10448 10445 10440 10434 10430 10430
10514 10516 10517 10518 10519 10521 10522 10523 10523 10524 10524 10525 10526 10525 10523 10523 10524 10525 10526 10526 10526 10526 10526 10527 10528 10528 10528 10529 10529 10530 10531 10532 10532 10532 10531 10531 10531 10531 10530 10530 10529 10528 10527 10527 10527 10527 10528 10528 10525 10521 10520 10518 10516 10514 10512 10510 10507 10505 10502 10499 10496 10493 10490 10486 10482 10479 10476 10473 10470 10468 10465 10462 10460 10458 10455 10451 10448 10444 10440 10437 10434 10432 10428 10423 10420
10507 10508 10509 10510 10511 10512 10513 10514 10516 10517 10517 10518 10519 10518 10517 10517 10518 10518 10519 10519 10519 10519 10520 10520 10521 10522 10522 10522 10522 10523 10524 10524 10524 10523 10523 10522 10523 10523 10522 10522 10522 10521 10520 10519 10518 10517 10516 10516 10515 10513 10510 10508 10505 10503 10500 10497 10493 10491 10488 10484 10481 10478 10475 10472 10469 10466 10464 10461 10459 10457 10455 10453 10450 10448 10446 10442 10438 10433 10428 10423 10419 10418 10417 10416 10413
10499 10501 10502 10502 10503 10504 10505 10506 10508 10509 10509 10510 10511 10510 10510 10511 10511 10511 10511 10511 10512 10512 10513 10513 10514 10514 10514 10515 10515 10515 10516 10517 10515 10513 10513 10514 10514 10515 10514 10514 10513 10513 10512 10511 10509 10508 10506 10505 10504 10502 10500 10497 10494 10492 10489 10486 10482 10479 10476 10473 10469 10466 10463 10460 10458 10455 10453 10451 10449 10447 10446 10443 10440 10438 10434 10430 10425 10420 10415 10410 10406 10402 10401 10402 10402
10491 10493 10494 10495 10496 10497 10498 10499 10500 10501 10502 10503 10504 10503 10502 10503 10503 10503 10504 10505 10505 10505 10505 10505 10506 10506 10506 10507 10507 10509 10510 10508 10505 10503 10504 10506 10506 10505 10505 10504 10503 10502 10501 10500 10498 10497 10495 10494 10492 10491 10489 10486 10484 10481 10478 10475 10472 10469 10466 10463 10461 10458 10455 10452 10449 10446 10444 10441 10439 10436 10434 10431 10428 10425 10421 10416 10412 10407 10401 10396 10393 10388 10385 10384 10384
10483 10484 10486 10487 10488 10489 10489 10490 10491 10492 10494 10495 10496 10496 10495 10495 10495 10496 10497 10498 10498 10497 10497 10496 10496 10497 10498 10499 10500 10502 10502 10499 10495 10494 10495 10497 10496 10495 10495 10494 10493 10492 10491 10489 10488 10486 10484 10483 10481 10479 10477 10475 10473 10471 10468 10465 10462 10459 10456 10453 10450 10447 10444 10441 10438 10435 10432 10429 10425 10422 10418 10414 10412 10410 10407 10402 10396 10390 10384 10379 10377 10374 10370 10366 10365
10474 10476 10477 10478 10479 10481 10482 10482 10483 10484 10485 10486 10487 10487 10487 10487 10487 10488 10488 10489 10489 10488 10488 10487 10488 10488 10488 10489 10492 10494 10492 10489 10487 10486 10486 10486 10486 10485 10485 10484 10483 10482 10481 10480 10479 10477 10475 10472 10470 10468 10466 10465 10463 10461 10458 10455 10452 10449 10446 10443 10440 10436 10433 10429 10425 10422 10418 10414 10409 10405 10400 10397 10394 10392 10390 10386 10380 10373 10366 10361 10359 10355 10352 10350 10347
10466 10467 10468 10469 10471 10472 10473 10475 10475 10476 10477 10478 10479 10480 10480 10480 10480 10479 10479 10480 10480 10480 10479 10479 10480 10479 10478 10479 10482 10483 10482 10480 10479 10478 10477 10476 10476 10476 10475 10474 10473 10472 10471 10469 10468 10466 10464 10462 10459 10457 10455 10453 10452 10449 10447 10443 10440 10437 10434 10431 10428 10424 10420 10416 10412 10408 10404 10399 10395 10390 10386 10382 10378 10375 10374 10371 10366 10359 10351 10345 10342 10338 10334 10332 10330
10457 10458 10459 10461 10462 10463 10465 10466 10467 10468 10469 10470 10471 10472 10472 10472 10472 10471 10471 10471 10470 10470 10471 10471 10471 10470 10470 10470 10471 10472 10472 10471 10470 10469 10468 10467 10466 10466 10465 10465 10464 10462 10460 10458 10457 10455 10453 10451 10448 10446 10444 10442 10440 10438 10435 10431 10428 10425 10421 10418 10414 10410 10406 10402 10398 10394 10390 10386 10382 10378 10374 10369 10364 10361 10358 10355 10352 10346 10337 10330 10326 10322 10318 10314 10311
10449 10450 10451 10452 10453 10454 10456 10457 10458 10459 10460 10461 10462 10463 10463 10463 10463 10463 10463 10463 10462 10462 10462 10463 10463 10462 10462 10462 10462 10462 10462 10462 10461 10460 10459 10458 10457 10456 10456 10455 10453 10452 10450 10448 10446 10444 10442 10439 10437 10436 10433 10431 10429 10426 10423 10419 10416 10412 10409 10404 10400 10397 10393 10389 10384 10380 10376 10372 10368 10364 10359 10354 10350 10346 10342 10339 10336 10331 10324 10316 10310 10306 10304 10301 10297
10440 10441 10442 10443 10444 10446 10447 10448 10448 10449 10451 10452 10453 10454 10454 10453 10454 10454 10454 10454 10454 10454 10454 10454 10454 10454 10453 10453 10453 10452 10452 10451 10451 10450 10449 10449 10448 10447 10446 10445 10443 10441 10439 10438 10436 10434 10431 10428 10426 10424 10422 10419 10417 10414 10411 10408 10404 10400 10396 10392 10388 10384 10380 10375 10370 10366 10361 10357 10353 10348 10343 10339 10334 10330 10326 10323 10319 10315 10311 10304 10297 10291 10289 10287 10285
10430 10431 10432 10434 10435 10436 10438 10438 10439 10440 10441 10442 10443 10444 10443 10443 10444 10445 10445 10444 10444 10445 10445 10445 10445 10444 10444 10443 10443 10442 10442 10441 10440 10440 10439 10438 10438 10437 10435 10434 10432 10430 10428 10426 10425 10423 10420 10418 10415 10413 10410 10408 10405 10402 10399 10395 10392 10388 10384 10380 10376 10372 10367 10362 10357 10352 10347 10343 10338 10334 10329 10324 10319 10314 10310 10306 10302 10298 10295 10291 10285 10279 10276 10274 10272
10420 10421 10423 10424 10425 10427 10428 10429 10429 10430 10431 10432 10433 10433 10433 10433 10433 10434 10435 10434 10434 10435 10435 10434 10434 10434 10434 10434 10433 10432 10432 10431 10430 10429 10428 10428 10427 10426 10424 10423 10420 10418 10417 10415 10413 10410 10408 10406 10403 10400 10398 10396 10393 10389 10386 10383 10379 10376 10372 10368 10364 10359 10354 10349 10344 10339 10334 10330 10325 10320 10314 10309 10304 10299 10295 10291 10287 10283 10279 10275 10270 10266 10264 10262 10260
10408 10410 10412 10413 10415 10416 10418 10419 10419 10420 10421 10422 10423 10423 10423 10423 10423 10423 10423 10424 10425 10425 10424 10424 10424 10425 10424 10424 10423 10423 10422 10421 10419 10418 10417 10417 10416 10415 10413 10411 10409 10406 10405 10404 10401 10398 10396 10393 10390 10388 10386 10383 10380 10376 10373 10370 10367 10363 10359 10354 10350 10345 10340 10335 10330 10325 10320 10315 10310 10304 10299 10294 10289 10284 10281 10277 10273 10269 10266 10262 10258 10254 10252 10250 10248
10396 10398 10400 10401 10403 10405 10407 10408 10409 10410 10411 10412 10412 10413 10412 10413 10412 10412 10412 10413 10415 10415 10414 10414 10415 10414 10413 10412 10413 10412 10410 10409 10408 10407 10406 10405 10404 10402 10400 10398 10397 10395 10394 10391 10388 10385 10383 10381 10378 10376 10373 10370 10367 10363 10360 10357 10353 10349 10344 10339 10335 10330 10325 10320 10315 10309 10304 10299 10294 10289 10284 10279 10274 10271 10267 10263 10260 10256 10253 10250 10247 10243 10240 10239 10237
10384 10385 10387 10389 10392 10394 10395 10396 10398 10399 10400 10401 10401 10402 10402 10401 10401 10401 10401 10402 10404 10404 10403 10403 10405 10404 10402 10401 10401 10400 10398 10397 10397 10396 10394 10393 10392 10390 10388 10386 10385 10383 10382 10379 10376 10374 10371 10368 10366 10363 10360 10357 10354 10350 10346 10343 10339 10334 10330 10325 10320 10315 10310 10305 10300 10294 10289 10284 10279 10274 10269 10264 10261 10258 10255 10251 10247 10244 10241 10239 10236 10233 10230 10228 10226
10372 10373 10375 10378 10380 10382 10383 10384 10386 10387 10388 10389 10390 10390 10390 10390 10389 10390 10390 10390 10391 10392 10391 10391 10392 10392 10391 10390 10390 10389 10387 10386 10385 10384 10382 10381 10380 10378 10376 10374 10373 10371 10369 10367 10364 10361 10359 10356 10354 10351 10347 10344 10340 10337 10333 10329 10324 10320 10316 10311 10306 10301 10296 10291 10286 10281 10276 10271 10266 10261 10255 10251 10248 10246 10243 10239 10235 10232 10229 10227 10225 10223 10220 10218 10217
10359 10361 10363 10366 10368 10369 10370 10371 10372 10374 10376 10377 10377 10378 10378 10378 10378 10379 10379 10378 10378 10379 10380 10380 10379 10379 10378 10378 10378 10377 10376 10374 10373 10371 10369 10368 10367 10365 10364 10362 10361 10359 10357 10354 10351 10349 10346 10344 10341 10337 10334 10330 10326 10323 10319 10315 10310 10306 10302 10297 10292 10287 10282 10277 10273 10268 10263 10259 10254 10248 10243 10239 10237 10234 10231 10229 10225 10221 10218 10217 10215 10213 10211 10209 10208
10346 10348 10350 10352 10353 10355 10356 10358 10359 10361 10363 10364 10365 10366 10366 10365 10366 10367 10367 10366 10365 10366 10368 10368 10367 10366 10365 10365 10364 10364 10363 10362 10360 10358 10356 10355 10353 10352 10351 10350 10348 10346 10343 10341 10338 10336 10333 10330 10327 10324 10320 10316 10313 10309 10305 10300 10296 10292 10288 10284 10279 10274 10269 10264 10260 10255 10251 10247 10242 10237 10233 10229 10226 10224 10221 10218 10216 10212 10209 10207 10206 10204 10202 10201 10200
10334 10335 10335 10336 10338 10340 10342 10343 10345 10347 10349 10351 10352 10352 10352 10352 10354 10355 10354 10354 10353 10353 10353 10354 10354 10353 10353 10352 10351 10350 10349 10348 10346 10344 10343 10341 10340 10339 10338 10336 10334 10332 10330 10327 10325 10322 10319 10316 10313 10310 10306 10302 10299 10295 10291 10286 10283 10279 10275 10271 10266 10261 10256 10252 10247 10243 10240 10236 10231 10227 10223 10219 10217 10214 10212 10209 10207 10204 10200 10198 10197 10196 10194 10193 10192
10320 10321 10322 10322 10323 10325 10327 10328 10330 10333 10335 10336 10338 10339 10338 10339 10340 10342 10342 10341 10341 10340 10340 10340 10340 10340 10340 10339 10338 10337 10336 10334 10332 10330 10329 10328 10327 10325 10324 10322 10320 10318 10316 10313 10310 10308 10305 10302 10299 10296 10292 10289 10285 10281 10277 10273 10270 10266 10262 10258 10253 10249 10245 10240 10236 10232 10229 10226 10222 10218 10214 10211 10207 10205 10203 10201 10198 10195 10192 10191 10189 10188 10187 10185 10184
10305 10307 10309 10309 10309 10311 10312 10313 10316 10318 10320 10321 10323 10325 10325 10325 10327 10328 10329 10329 10328 10328 10328 10327 10327 10327 10327 10326 10325 10324 10322 10321 10319 10317 10316 10315 10314 10312 10311 10309 10307 10304 10302 10299 10297 10294 10291 10289 10286 10283 10279 10276 10273 10269 10265 10261 10257 10253 10249 10245 10241 10237 10233 10230 10226 10222 10219 10216 10213 10209 10206 10202 10199 10197 10195 10193 10190 10188 10185 10183 10182 10181 10179 10178 10177
10290 10292 10295 10296 10296 10297 10298 10300 10302 10304 10305 10306 10308 10310 10311 10312 10313 10314 10315 10315 10315 10315 10315 10315 10314 10314 10314 10313 10312 10311 10309 10308 10307 10305 10303 10302 10301 10299 10298 10296 10294 10292 10289 10287 10284 10282 10279 10277 10274 10271 10268 10264 10261 10257 10253 10249 10245 10241 10238 10234 10230 10226 10223 10219 10216 10213 10210 10207 10204 10201 10198 10194 10191 10189 10186 10184 10182 10180 10178 10176 10175 10174 10173 10171 10170
10276 10278 10280 10281 10282 10283 10285 10287 10289 10289 10290 10292 10294 10295 10296 10298 10299 10299 10300 10301 10302 10302 10302 10302 10302 10301 10300 10299 10298 10298 10297 10295 10294 10292 10291 10290 10288 10287 10285 10283 10282 10280 10277 10275 10273 10270 10268 10265 10262 10259 10256 10253 10249 10244 10240 10237 10233 10230 10227 10224 10220 10217 10213 10210 10207 10204 10202 10199 10195 10192 10189 10187 10184 10181 10178 10177 10175 10173 10171 10169 10168 10167 10166 10165 10164
10262 10264 10265 10267 10268 10270 10272 10274 10276 10275 10276 10279 10280 10281 10282 10284 10285 10285 10286 10286 10287 10287 10288 10288 10288 10287 10287 10286 10285 10285 10284 10282 10281 10279 10278 10277 10275 10274 10273 10271 10270 10268 10266 10264 10262 10259 10257 10254 10251 10247 10244 10240 10237 10233 10229 10226 10223 10220 10218 10215 10212 10208 10204 10201 10198 10196 10193 10190 10187 10184 10181 10179 10177 10174 10171 10169 10168 10167 10164 10163 10162 10161 10160 10159 10158
10249 10250 10251 10253 10255 10256 10258 10260 10261 10262 10263 10265 10266 10267 10269 10270 10271 10271 10272 10272 10273 10273 10273 10274 10274 10273 10273 10273 10272 10271 10270 10269 10268 10267 10265 10264 10263 10262 10261 10259 10258 10256 10254 10252 10250 10248 10245 10242 10239 10236 10232 10229 10226 10222 10219 10216 10213 10211 10208 10206 10203 10200 10196 10193 10190 10188 10185 10183 10180 10177 10174 10171 10170 10168 10165 10163 10162 10161 10159 10157 10156 10155 10154 10153 10153
10236 10237 10239 10240 10241 10242 10243 10245 10247 10248 10250 10251 10252 10254 10255 10256 10257 10257 10258 10258 10259 10259 10259 10259 10260 10259 10259 10259 10259 10258 10257 10256 10255 10254 10253 10252 10251 10250 10248 10247 10246 10244 10242 10240 10238 10236 10234 10231 10228 10224 10221 10218 10216 10213 10210 10207 10205 10202 10200 10198 10195 10192 10188 10185 10182 10180 10178 10176 10173 10170 10167 10165 10163 10162 10159 10157 10156 10155 10153 10151 10150 10149 10148 10148 10147
10222 10224 10226 10227 10228 10229 10230 10232 10234 10235 10236 10237 10238 10240 10241 10242 10243 10244 10244 10244 10245 10245 10246 10246 10246 10246 10246 10246 10245 10245 10244 10243 10243 10242 10241 10240 10239 10238 10236 10235 10233 10231 10230 10228 10227 10225 10222 10220 10217 10214 10211 10209 10206 10204 10202 10199 10197 10195 10192 10190 10187 10184 10181 10178 10175 10173 10171 10169 10167 10164 10162 10159 10157 10156 10154 10152 10150 10149 10148 10146 10145 10143 10143 10142 10142
10209 10211 10213 10214 10215 10217 10218 10219 10221 10222 10223 10224 10225 10227 10228 10229 10229 10230 10230 10231 10231 10232 10232 10233 10233 10233 10233 10233 10232 10232 10231 10231 10230 10230 10229 10228 10227 10226 10225 10223 10221 10219 10218 10217 10215 10213 10211 10209 10207 10205 10202 10200 10198 10196 10194 10191 10189 10187 10185 10182 10179 10176 10173 10171 10168 10166 10164 10163 10160 10158 10156 10154 10152 10150 10148 10147 10145 10143 10142 10141 10140 10138 10138 10137 10137
10198 10199 10200 10202 10203 10204 10206 10207 10208 10209 10210 10211 10213 10214 10215 10215 10216 10217 10217 10218 10218 10219 10219 10220 10220 10220 10220 10220 10220 10219 10219 10219 10218 10218 10217 10216 10216 10215 10213 10211 10209 10208 10207 10206 10204 10203 10201 10199 10197 10195 10194 10191 10189 10188 10186 10183 10181 10179 10177 10174 10171 10168 10166 10164 10162 10160 10158 10156 10154 10152 10150 10148 10147 10145 10143 10141 10140 10138 10137 10136 10134 10133 10133 10132 10132